SL-16 DEB, 22423

Orbit data source: Space-Track

SL-16 DEB, 22423 is space debris in LEO originally from a launch on Fri, 25 Dec 1992 UTC launched from the Tyuratam Missile And Space Complex (TTMTR). Debris objects in space refer to the collection of defunct objects orbiting the Earth. Examples of debris include non-operational satellites, rocket bodies, and fragments generated from explosions, collisions, or faulty payload assembly.

Loading next visibility...
Identifier
22423, 1992-093DQ
Orbit
LEO
Country
Flag of CISCIS
Related business
Manufacturer
Unknown
Mission
Spacecraft
Bus & Motor
Unknown
Mass
Unknown
Launch date (UTC)
1992-12-25 (33 years ago)
Launch vehicle
Unknown
Launch site
Tyuratam Missile And Space Complex (TTMTR)
Object type
Payload
Rocket body
Debris
Shape & HBR
Unknown shape, 0.2 m
Radar Cross Section
Medium (>0.1 m² and <1 m²)

Expand to show TLE details & history
Last TLE update: 13 hours ago

TLE from 13 hours ago
0 SL-16 DEB
1 22423U 92093DQ  26037.22983988  .00000072  00000-0  81156-4 0  9997
2 22423  71.2805 136.4258 0097660 129.0032 231.9830 13.95495620683391
Epoch: 2026-02-06T05:30Z
TLE epoch observation values (Epoch: 2026-02-06T05:30:58.165Z)
Latitude
-0.00004°
Longitude
-82.68727°
Altitude
956.099 km
Speed
7.352 km/s
True Right ascension
09h 05m 42s
True Declination
0° 00' 00"
Sunlit
Object was in full shadow at epoch
Visualization orbit readout
Latitude
Unknown
Longitude
Unknown
Altitude
Unknown
Speed
Unknown
Apparent Right ascension
Unknown
Apparent Declination
Unknown
Sunlit
N/A
Visualization observer readout
Local Sidereal Time
20:40:33
Azimuth
Unknown
Elevation
Unknown
Doppler factor
Unknown
Orbital elements
Apogee altitude
978.502 km
Perigee altitude
836.202 km
Semi-major axis
7,285.489 km
Eccentricity
0.00977
Inclination
71.2805°
RAAN
136.4258°
Arg. of periapsis
129.0032°
True anomaly
231.10796°
Mean anomaly
231.983°
Eccentric anomaly
231.54482°
Mean motion
3.49024 °/min
Orbital period
103.14 mins
BSTAR
0.000081156
Loading maneuver chart data...
Computing Atmospheric mass density...

Documentation

Showing up to 5 results
|